Location: Colonia Mina de C?rbuni
(46.1667°N, 22.7167°E)
Time: 16:10:21
(UTC+00:00)

S-56A Canister/Altair - Pass Details

Date: 17 April 2024
Orbit: 638 x 2488 km, 38.9° (Epoch: 19 May)

Event Time Altitude Azimuth Distance (km) Brightness Sun altitude
Rises 18:34:52 0° 261° (W) 3,782 11.9 -12.7°
Reaches altitude 10° 18:37:12 10° 256° (WSW) 3,024 11.2 -13.1°
Maximum altitude 18:44:35 55° 181° (S) 1,757 9.1 -14.2°
Enters shadow 18:53:00 18° 112° (ESE) 3,656 10.3 -15.4°
